[[{"header":{"parameterUnit":"m.s-1","parameterCategory":1,"la1":30.2991,"la2":30.254,"lo1":-89.0895,"lo2":-89.0444,"dx":0.0017,"dy":0.0017,"nx":28,"ny":28,"refTime":"2023-01-12T15:00:00:Z","depth":0,"parameterNumber":2,"parameterNumberName":"U-component_of_WINDS"},"data":[0,0,0,0,0,0,0,0,0,0,0,0,0,0,0,0,0,0,0,0,0,0,0,0,0,0,0,0,0,0,0,0,0,0,0,0,0,0,0,0,0,0,0,0,0,0,0,0,0,0,0,0,0,0,0,0,0,0,1.2081,1.2082,0,1.2136,1.2137,1.2137,1.214,1.2139,1.2139,1.2138,1.2196,1.2198,1.22,0,0,0,0,0,0,0,0,0,0,0,0,0,1.198,1.1982,1.2081,1.2082,1.2082,1.2136,1.2137,1.2137,1.214,1.2139,1.2138,1.2138,1.2195,1.2198,1.22,0,0,0,0,0,0,0,0,0,0,0,0,0,1.2028,1.1982,1.2081,1.209,1.2091,1.2136,1.2137,1.2138,1.214,1.2139,1.2138,1.2137,1.2194,1.2197,1.2201,1.224,0,0,1.2211,1.2212,0,0,0,0,0,0,0,0,1.2025,1.2032,1.2088,1.209,1.2091,1.213,1.2122,1.2172,1.214,1.2122,1.2138,1.2137,1.2175,1.218,1.2192,1.2243,1.2245,1.2211,1.2213,1.2214,1.2215,0,0,0,0,0,0,0,1.2022,1.203,1.2103,1.2089,1.2091,1.2092,1.2098,1.2132,1.2153,1.2123,1.2124,1.213,1.2176,1.2189,1.2194,1.2246,1.2211,1.2214,1.2216,1.2217,1.2332,1.2333,0,0,0,0,0,0,1.2017,1.2027,1.2101,1.2104,1.2055,1.2095,1.2101,1.2119,1.2153,1.2157,1.2131,1.213,1.2184,1.219,1.2196,1.2244,1.2214,1.2217,1.2219,1.2331,1.2333,1.2334,0,0,0,0,0,0,1.2015,1.2023,1.2099,1.2066,1.2075,1.2097,1.2117,1.212,1.2134,1.2158,1.2162,1.214,1.2183,1.2191,1.2229,1.2246,1.2219,1.2221,1.233,1.2332,1.2333,1.2342,0,0,0,0,0,0,1.2012,1.2023,1.2037,1.2066,1.2077,1.2131,1.2118,1.2122,1.2139,1.2138,1.2169,1.2173,1.2183,1.2224,1.2232,1.225,1.2224,1.2328,1.2331,1.2333,1.234,1.2344,1.2347,0,0,0,0,0,1.2008,1.2038,1.2038,1.2047,1.2096,1.2132,1.2138,1.2149,1.214,1.2156,1.2172,1.2172,1.2243,1.2228,1.2237,1.2256,1.2327,1.233,1.2333,1.2339,1.2343,1.2347,0,0,0,0,0,0,1.2011,1.2042,1.2042,1.2082,1.2104,1.2132,1.2152,1.2153,1.2179,1.2177,1.2191,1.2198,1.2235,1.225,1.2232,1.2297,1.2284,1.2289,1.2286,1.229,1.2293,1.2289,1.2227,0,0,0,0,0,1.2016,1.2042,1.2068,1.21,1.2111,1.213,1.2146,1.2152,1.2176,1.2186,1.2204,1.2228,1.2256,1.2274,1.23,1.2342,1.2349,1.236,1.2363,1.2366,1.237,1.2393,1.2399,1.2342,1.2342,1.2342,0,0,1.2027,1.2047,1.2063,1.2101,1.2119,1.2147,1.2138,1.2167,1.2187,1.219,1.2227,1.2242,1.2269,1.2309,1.2327,1.2322,1.2387,1.2369,1.2371,1.2373,1.2397,1.2402,1.2407,1.2344,1.2344,1.2343,0,0,1.2061,1.2079,1.2108,1.2126,1.2153,1.2166,1.2173,1.22,1.221,1.2247,1.225,1.2275,1.2322,1.2342,1.2358,1.24,1.2401,1.2408,1.2425,1.2448,1.2453,1.2457,1.2473,1.2478,1.2412,1.2412,1.2412,0,1.2072,1.2112,1.2123,1.2152,1.2169,1.2173,1.2203,1.2221,1.2255,1.2267,1.2261,1.232,1.2339,1.2384,1.2394,1.2407,1.2416,1.2405,1.2451,1.2455,1.2459,1.2474,1.248,1.2413,1.2413,1.2412,1.2412,0,1.2124,1.2152,1.2173,1.2206,1.2226,1.2255,1.2271,1.2289,1.2295,1.2307,1.2346,1.2368,1.24,1.2411,1.2416,1.2457,1.2453,1.2448,1.2436,1.2465,1.248,1.2485,1.2414,1.2413,1.2413,1.2413,0,0,1.2161,1.22,1.2208,1.2223,1.2254,1.2276,1.2306,1.2337,1.2353,1.2377,1.2402,1.2443,1.2439,1.2457,1.2465,1.2485,1.2518,1.2479,1.2479,1.2485,1.2565,1.2568,1.2574,1.2518,1.2519,1.252,1.2562,0,1.2199,1.2252,1.2263,1.2309,1.2336,1.234,1.2366,1.2388,1.2401,1.2426,1.244,1.2469,1.2462,1.2473,1.2493,1.2509,1.2534,1.2506,1.2543,1.2545,1.2537,1.2582,1.2585,1.2624,1.2568,1.2569,1.257,0,1.225,1.2275,1.2324,1.2352,1.2363,1.2387,1.2416,1.2439,1.2465,1.2473,1.2493,1.2499,1.2531,1.2517,1.2562,1.2543,1.2559,1.2569,1.2571,1.2575,1.2559,1.2588,1.2636,1.2642,1.2579,1.2578,1.2577,0,1.2273,1.2319,1.2355,1.2368,1.24,1.2417,1.2431,1.2455,1.2473,1.2499,1.2511,1.254,1.2556,1.2579,1.2593,1.2581,1.2637,1.2624,1.2645,1.2645,1.2657,1.2656,1.2709,1.2666,1.2666,1.2666,1.2666,0,1.2315,1.2344,1.2365,1.2387,1.2421,1.2433,1.2467,1.2481,1.2503,1.2528,1.2533,1.2557,1.2573,1.2599,1.261,1.2646,1.2653,1.2661,1.2663,1.266,1.266,1.2671,1.2669,1.2668,1.2667,1.2667,1.2667,0,1.2346,1.2361,1.24,1.2428,1.2436,1.2459,1.2484,1.2505,1.2518,1.255,1.2558,1.2579,1.261,1.2626,1.2664,1.2672,1.2712,1.2713,1.2704,1.2705,1.2725,1.2723,1.2788,1.2798,1.2748,1.2748,1.2749,0,1.2371,1.2394,1.2425,1.2442,1.2457,1.2484,1.2503,1.2516,1.2535,1.2566,1.2584,1.2615,1.2641,1.269,1.2709,1.2739,1.2741,1.2761,1.2745,1.2742,1.2742,1.274,1.2743,1.2764,1.2765,1.2765,1.2765,0,1.2415,1.2422,1.2448,1.2477,1.2498,1.2522,1.2545,1.2559,1.2576,1.2597,1.2629,1.2649,1.2688,1.2719,1.2751,1.2766,1.2769,1.277,1.2777,1.2775,1.2768,1.2773,1.2712,1.2769,1.2769,1.2768,1.2768,1.2768,1.2445,1.2466,1.2491,1.252,1.2539,1.256,1.2582,1.2598,1.2624,1.2657,1.2664,1.2697,1.2723,1.2765,1.2782,1.2809,1.2804,1.2814,1.2816,1.2818,1.282,1.2764,1.2814,1.2814,1.2814,1.2814,1.2814,0,1.2489,1.2506,1.2532,1.2564,1.2588,1.2588,1.2614,1.2633,1.2662,1.2686,1.2711,1.2748,1.2778,1.2799,1.283,1.2848,1.285,1.2856,1.2855,1.2859,1.2821,1.2813,1.2853,1.2853,1.2853,1.2853,1.2853,1.2853,1.2515,1.2551,1.256,1.2606,1.2622,1.2655,1.267,1.269,1.2709,1.2749,1.2774,1.2788,1.2811,1.2844,1.2872,1.2877,1.2889,1.2894,1.29,1.2865,1.2861,1.2857,1.2849,1.2897,1.2897,1.2935,1.2935,1.2936]},{"header":{"parameterUnit":"m.s-1","parameterCategory":1,"la1":30.2991,"la2":30.254,"lo1":-89.0895,"lo2":-89.0444,"dx":0.0017,"dy":0.0017,"nx":28,"ny":28,"refTime":"2023-01-12T15:00:00:Z","depth":0,"parameterNumber":3,"parameterNumberName":"V-component_of_WINDS"},"data":[0,0,0,0,0,0,0,0,0,0,0,0,0,0,0,0,0,0,0,0,0,0,0,0,0,0,0,0,0,0,0,0,0,0,0,0,0,0,0,0,0,0,0,0,0,0,0,0,0,0,0,0,0,0,0,0,0,0,5.5576,5.5576,0,5.5646,5.5646,5.5647,5.5621,5.5619,5.5618,5.5616,5.5684,5.5687,5.569,0,0,0,0,0,0,0,0,0,0,0,0,0,5.5415,5.5419,5.5575,5.5576,5.5577,5.5645,5.5646,5.5647,5.5621,5.5619,5.5617,5.5615,5.5682,5.5686,5.569,0,0,0,0,0,0,0,0,0,0,0,0,0,5.5485,5.542,5.5575,5.5572,5.5573,5.5645,5.5646,5.5648,5.5621,5.5619,5.5617,5.5614,5.5681,5.5686,5.5691,5.5769,0,0,5.5706,5.5708,0,0,0,0,0,0,0,0,5.5481,5.5491,5.5572,5.5573,5.5573,5.5622,5.5615,5.5688,5.5622,5.5603,5.5616,5.5613,5.5665,5.5671,5.5689,5.5772,5.5775,5.5706,5.5709,5.5711,5.5713,0,0,0,0,0,0,0,5.5476,5.5488,5.5603,5.5573,5.5574,5.5567,5.5574,5.5628,5.5646,5.5604,5.5603,5.5612,5.5665,5.5684,5.569,5.5776,5.5706,5.571,5.5713,5.5715,5.5928,5.5931,0,0,0,0,0,0,5.5472,5.5484,5.5601,5.5605,5.5521,5.5571,5.5579,5.5609,5.5646,5.5649,5.5613,5.561,5.5677,5.5685,5.5693,5.5788,5.5711,5.5716,5.5719,5.5925,5.5929,5.5932,0,0,0,0,0,0,5.5468,5.5483,5.5598,5.5544,5.5558,5.5577,5.561,5.5611,5.5631,5.5653,5.5655,5.5631,5.5676,5.5686,5.5751,5.579,5.5718,5.5723,5.5922,5.5926,5.593,5.5979,0,0,0,0,0,0,5.5464,5.5481,5.5512,5.5545,5.5561,5.5656,5.5612,5.5615,5.564,5.5637,5.5669,5.5672,5.5674,5.5744,5.5756,5.5796,5.5726,5.5919,5.5924,5.5929,5.5974,5.5984,5.5993,0,0,0,0,0,5.5458,5.5522,5.5514,5.5528,5.56,5.5658,5.5668,5.567,5.5644,5.5674,5.5688,5.5671,5.5784,5.5751,5.5764,5.5806,5.5916,5.5923,5.5928,5.597,5.5982,5.5993,0,0,0,0,0,0,5.5491,5.5526,5.5518,5.5594,5.5624,5.5654,5.5693,5.5683,5.5719,5.5714,5.5714,5.5722,5.5789,5.5803,5.5766,5.5884,5.5846,5.5855,5.5873,5.5885,5.5894,5.589,5.5731,0,0,0,0,0,5.5507,5.5553,5.558,5.5645,5.566,5.5674,5.5699,5.5699,5.5729,5.5741,5.576,5.5789,5.5831,5.5858,5.5897,5.5975,5.5983,5.6011,5.602,5.6028,5.6036,5.608,5.6093,5.5951,5.5951,5.5951,0,0,5.554,5.5565,5.5594,5.5652,5.5675,5.5722,5.5685,5.5735,5.577,5.5748,5.5812,5.5826,5.5859,5.5931,5.5964,5.5945,5.6077,5.6036,5.6042,5.6046,5.6088,5.6101,5.6113,5.5956,5.5955,5.5954,0,0,5.5626,5.5649,5.5707,5.5731,5.5767,5.5776,5.579,5.5822,5.5832,5.5896,5.5882,5.5921,5.5993,5.6018,5.6039,5.6136,5.6122,5.6148,5.6198,5.6241,5.6252,5.6262,5.6298,5.6311,5.6156,5.6156,5.6156,0,5.5663,5.5734,5.5737,5.579,5.5816,5.58,5.5858,5.5881,5.5928,5.5946,5.5924,5.6016,5.6036,5.6115,5.6139,5.6156,5.6172,5.6145,5.6251,5.6261,5.627,5.6304,5.6318,5.6159,5.6159,5.6158,5.6158,0,5.5779,5.5828,5.587,5.5918,5.5949,5.6003,5.6014,5.6044,5.6041,5.6052,5.6118,5.6142,5.6187,5.6205,5.6201,5.6284,5.6271,5.625,5.6212,5.6287,5.6319,5.6332,5.6164,5.6162,5.6162,5.6161,0,0,5.5887,5.5937,5.5952,5.5975,5.6014,5.6052,5.6106,5.6152,5.6179,5.6211,5.6257,5.6319,5.63,5.6325,5.6324,5.6361,5.6438,5.6336,5.6336,5.6355,5.6532,5.6549,5.6564,5.6429,5.6431,5.6433,5.653,0,5.5977,5.6074,5.6079,5.6167,5.6213,5.62,5.6247,5.6276,5.6287,5.6327,5.6339,5.6384,5.6355,5.6371,5.6407,5.6421,5.6474,5.6414,5.6471,5.6473,5.6466,5.658,5.6598,5.6688,5.6542,5.6544,5.6546,0,5.6095,5.6134,5.6228,5.6263,5.6282,5.6325,5.6368,5.6407,5.6439,5.6445,5.6474,5.6467,5.6522,5.6481,5.6557,5.6517,5.654,5.655,5.6554,5.6561,5.6515,5.6592,5.6717,5.6731,5.6565,5.6564,5.6562,0,5.6167,5.6243,5.6309,5.6328,5.637,5.6401,5.6419,5.6449,5.6477,5.6514,5.6532,5.6574,5.6598,5.663,5.6635,5.6605,5.6712,5.6671,5.6719,5.6719,5.6743,5.6742,5.6875,5.6755,5.6755,5.6755,5.6755,0,5.6268,5.6327,5.6343,5.6384,5.6449,5.6452,5.6516,5.6532,5.6559,5.6602,5.6591,5.6632,5.6636,5.6677,5.6681,5.6744,5.6754,5.6761,5.6761,5.6763,5.6762,5.6779,5.6774,5.6758,5.6758,5.6757,5.6756,0,5.636,5.6373,5.6445,5.6479,5.6489,5.6536,5.6564,5.6603,5.6614,5.6669,5.6682,5.6699,5.6747,5.6756,5.6812,5.6814,5.6891,5.6884,5.6881,5.688,5.6928,5.6924,5.7079,5.71,5.6964,5.6966,5.6967,0,5.6425,5.647,5.651,5.6539,5.656,5.6607,5.6636,5.6641,5.6672,5.6713,5.6747,5.6795,5.6833,5.6911,5.6928,5.6971,5.6966,5.7017,5.6973,5.6973,5.6969,5.6967,5.6973,5.7027,5.7028,5.7029,5.703,0,5.6539,5.6544,5.6587,5.6634,5.667,5.6706,5.674,5.6764,5.6773,5.6808,5.6859,5.6889,5.6948,5.6996,5.7039,5.7056,5.7045,5.7044,5.7058,5.706,5.7058,5.7062,5.6906,5.7041,5.704,5.7039,5.7038,5.7038,5.6621,5.6661,5.6696,5.6745,5.6772,5.6805,5.6844,5.686,5.6903,5.6953,5.6953,5.7009,5.704,5.7098,5.7118,5.7161,5.7145,5.7164,5.7169,5.7174,5.718,5.705,5.7169,5.7169,5.7168,5.7168,5.7168,0,5.6736,5.6759,5.6804,5.6853,5.6892,5.688,5.6917,5.695,5.7,5.7031,5.707,5.7129,5.7176,5.7196,5.7242,5.7273,5.7269,5.7285,5.7283,5.7288,5.7191,5.7176,5.7287,5.7287,5.7287,5.7287,5.7287,5.7287,5.6801,5.6869,5.6878,5.6959,5.698,5.7037,5.706,5.709,5.7115,5.7182,5.7222,5.7235,5.7262,5.731,5.7352,5.7357,5.7375,5.7394,5.7396,5.7306,5.7294,5.7283,5.7268,5.7397,5.7397,5.7489,5.749,5.7491]}]]